Change the Weather History Date:

Wednesday, December 25, 2013

  Actual Average (KPDC) Record (KPDC)
Temperature  
Mean Temperature 17 °F -  
Max Temperature 24 °F 26 °F 50 °F (1982)
Min Temperature 10 °F 9 °F -25 °F (2000)
Degree Days  
Heating Degree Days 48    
Moisture  
Dew Point 14 °F    
Average Humidity 81    
Maximum Humidity 86    
Minimum Humidity 68    
Precipitation  
Precipitation 0.02 in - - ()
Sea Level Pressure  
Sea Level Pressure 30.16 in    
Wind  
Wind Speed 4 mph (SW)    
Max Wind Speed 12 mph    
Max Gust Speed -    
Visibility 4 miles    
Events Snow    
Averages and records for this station are not official NWS values.
T = Trace of Precipitation, MM = Missing Value Source: NWS Daily Summary

Daily Weather History Graph

Daily Weather History Graph

Search for Another Location

Airport or City:

Trip Planner

Search our weather history database for the weather conditions in past years. The results will help you decide how hot, cold, wet, or windy it might be!

Date:

Astronomy

Dec. 25, 2013 Rise Set
Actual Time 7:33 AM CST 4:32 PM CST
Civil Twilight 7:00 AM CST 5:05 PM CST
Nautical Twilight 6:24 AM CST 5:41 PM CST
Astronomical Twilight 5:49 AM CST 6:16 PM CST
Moon No Moon Rise 11:45 AM CST (12/25)
Length of Visible Light 10h 04m
Length of Day
8h 59m
Waning Gibbous, 48% of the Moon is Illuminated
Dec 25
Waning Gibbous
Jan 1
New
Jan 7
First Quarter
Jan 15
Full
Jan 23
Last Quarter

Hourly Weather History & Observations

Time (CST) Temp. Windchill Dew Point Humidity Pressure Visibility Wind Dir Wind Speed Gust Speed Precip Events Conditions
12:42 AM 10.9 °F 1.4 °F 6.1 °F 81% 30.23 in 1.0 mi SSW 5.8 mph - 0.01 in Snow Light Snow
12:53 AM 10.9 °F 4.7 °F 7.0 °F 84% 30.27 in 0.8 mi SW 3.5 mph - 0.01 in Snow Light Snow
1:01 AM 10.9 °F 4.7 °F 7.0 °F 84% 30.22 in 1.0 mi SW 3.5 mph - 0.00 in Snow Light Snow
1:14 AM 10.9 °F 4.7 °F 7.0 °F 84% 30.21 in 1.5 mi SW 3.5 mph - 0.00 in Snow Light Snow
1:25 AM 10.9 °F - 7.0 °F 84% 30.21 in 2.5 mi Calm Calm - 0.00 in Snow Light Snow
1:35 AM 10.9 °F - 7.0 °F 84% 30.21 in 4.0 mi Calm Calm - 0.00 in Snow Light Snow
1:53 AM 12.0 °F 5.9 °F 7.0 °F 80% 30.25 in 2.5 mi SW 3.5 mph - 0.00 in Snow Light Snow
2:10 AM 12.0 °F 5.9 °F 7.0 °F 80% 30.21 in 1.0 mi WSW 3.5 mph - 0.00 in Snow Light Snow
2:26 AM 12.0 °F - 8.1 °F 84% 30.21 in 2.0 mi Calm Calm - 0.01 in Snow Light Snow
2:32 AM 12.0 °F - 8.1 °F 84% 30.20 in 3.0 mi Calm Calm - 0.01 in Snow Light Snow
2:51 AM 12.2 °F - 8.6 °F 85% 30.20 in 4.0 mi Calm Calm - 0.01 in Snow Light Snow
2:53 AM 12.0 °F - 8.1 °F 84% 30.25 in 4.0 mi Calm Calm - 0.01 in Snow Light Snow
3:53 AM 12.9 °F - 8.1 °F 81% 30.24 in 10.0 mi Calm Calm - 0.00 in   Overcast
4:14 AM 12.9 °F - 8.1 °F 81% 30.19 in 9.0 mi Calm Calm - N/A   Overcast
4:53 AM 12.9 °F - 9.0 °F 84% 30.23 in 9.0 mi Calm Calm - N/A   Overcast
5:53 AM 14.0 °F - 9.0 °F 80% 30.22 in 10.0 mi Calm Calm - N/A   Overcast
6:53 AM 15.1 °F 7.7 °F 10.0 °F 80% 30.22 in 9.0 mi WSW 4.6 mph - N/A   Overcast
7:53 AM 16.0 °F 8.8 °F 12.0 °F 84% 30.22 in 6.0 mi SW 4.6 mph - N/A   Overcast
8:07 AM 16.0 °F 8.8 °F 12.0 °F 84% 30.17 in 6.0 mi SW 4.6 mph - N/A   Overcast
8:53 AM 17.1 °F 11.7 °F 12.9 °F 84% 30.23 in 5.0 mi WSW 3.5 mph - N/A   Overcast
9:53 AM 19.0 °F 12.3 °F 15.1 °F 85% 30.22 in 4.0 mi SW 4.6 mph - N/A   Overcast
10:53 AM 19.9 °F 12.1 °F 16.0 °F 85% 30.20 in 3.0 mi SW 5.8 mph - 0.00 in Snow Light Snow
11:01 AM 21.0 °F 12.4 °F 16.0 °F 81% 30.15 in 1.8 mi SW 6.9 mph - 0.00 in Snow Light Snow
11:32 AM 21.0 °F 12.4 °F 17.1 °F 85% 30.14 in 1.2 mi SW 6.9 mph - 0.00 in Snow Light Snow
11:41 AM 21.9 °F 15.7 °F 17.1 °F 82% 30.13 in 1.0 mi SW 4.6 mph - 0.00 in Snow Light Snow
11:51 AM 21.2 °F 12.6 °F 17.6 °F 86% 30.13 in 0.8 mi SW 6.9 mph - 0.00 in Snow Light Snow
11:53 AM 21.9 °F 13.4 °F 17.1 °F 82% 30.17 in 0.8 mi SW 6.9 mph - 0.00 in Snow Light Snow
12:12 PM 21.9 °F 14.5 °F 18.0 °F 85% 30.13 in 1.0 mi WSW 5.8 mph - 0.00 in Snow Light Snow
12:20 PM 21.9 °F 12.5 °F 18.0 °F 85% 30.12 in 1.5 mi SW 8.1 mph - 0.00 in Snow Light Snow
12:29 PM 23.0 °F 14.7 °F 18.0 °F 81% 30.12 in 1.5 mi SW 6.9 mph - 0.00 in Snow Light Snow
12:53 PM 23.0 °F 15.8 °F 18.0 °F 81% 30.16 in 1.2 mi WSW 5.8 mph - 0.00 in Snow Light Snow
1:02 PM 23.0 °F 15.8 °F 18.0 °F 81% 30.11 in 1.0 mi SW 5.8 mph - 0.00 in Snow Light Snow
1:07 PM 23.0 °F 15.8 °F 18.0 °F 81% 30.11 in 1.2 mi WSW 5.8 mph - 0.00 in Snow Light Snow
1:31 PM 23.0 °F 15.8 °F 18.0 °F 81% 30.11 in 2.0 mi SW 5.8 mph - 0.00 in Snow Light Snow
1:39 PM 24.1 °F 15.2 °F 19.0 °F 81% 30.10 in 1.5 mi SW 8.1 mph - 0.00 in Snow Light Snow
1:53 PM 24.1 °F 14.4 °F 19.0 °F 81% 30.14 in 2.0 mi SSW 9.2 mph - 0.00 in Snow Light Snow
2:13 PM 24.1 °F 15.2 °F 19.0 °F 81% 30.10 in 1.8 mi SSW 8.1 mph - 0.00 in Snow Light Snow
2:53 PM 24.1 °F 18.2 °F 19.9 °F 84% 30.14 in 1.5 mi SW 4.6 mph - 0.00 in Snow Light Snow
3:00 PM 24.1 °F 17.0 °F 19.9 °F 84% 30.10 in 1.2 mi SW 5.8 mph - 0.00 in Snow Light Snow
3:03 PM 24.1 °F 16.0 °F 19.9 °F 84% 30.10 in 0.8 mi SW 6.9 mph - 0.00 in Snow Light Snow
3:20 PM 24.1 °F 17.0 °F 19.9 °F 84% 30.10 in 1.0 mi SW 5.8 mph - 0.00 in Snow Light Snow
3:30 PM 24.1 °F 18.2 °F 19.9 °F 84% 30.10 in 1.8 mi SW 4.6 mph - 0.00 in Snow Light Snow
3:49 PM 24.8 °F 17.9 °F 19.4 °F 80% 30.10 in 3.0 mi SW 5.8 mph - 0.00 in Snow Light Snow
3:50 PM 24.1 °F 16.0 °F 19.9 °F 84% 30.14 in 3.0 mi WSW 6.9 mph - 0.00 in Snow Light Snow
4:53 PM 24.1 °F 13.7 °F 18.0 °F 77% 30.14 in 10.0 mi SW 10.4 mph - 0.00 in   Overcast
5:11 PM 24.1 °F 14.4 °F 18.0 °F 77% 30.10 in 9.0 mi SW 9.2 mph - 0.00 in   Overcast
5:53 PM 24.1 °F 16.0 °F 19.0 °F 81% 30.13 in 7.0 mi SW 6.9 mph - 0.00 in Snow Light Snow
6:09 PM 24.1 °F 15.2 °F 19.0 °F 81% 30.09 in 7.0 mi SW 8.1 mph - 0.00 in   Overcast
6:53 PM 24.1 °F 17.0 °F 19.0 °F 81% 30.13 in 8.0 mi SW 5.8 mph - 0.00 in   Overcast
7:25 PM 21.9 °F 12.5 °F 17.1 °F 82% 30.10 in 8.0 mi SW 8.1 mph - N/A   Partly Cloudy
7:53 PM 21.9 °F 10.4 °F 12.9 °F 68% 30.15 in 10.0 mi West 11.5 mph - 0.00 in   Partly Cloudy
8:53 PM 19.0 °F 9.0 °F 10.9 °F 71% 30.17 in 10.0 mi WSW 8.1 mph - 0.00 in   Clear
9:23 PM 18.0 °F 8.7 °F 10.9 °F 74% 30.13 in 10.0 mi WSW 6.9 mph - 0.00 in   Mostly Cloudy
9:53 PM 17.1 °F 8.7 °F 10.0 °F 74% 30.18 in 10.0 mi SW 5.8 mph - 0.00 in   Overcast
10:44 PM 14.0 °F 3.9 °F 8.1 °F 77% 30.15 in 10.0 mi SW 6.9 mph - N/A   Partly Cloudy
10:53 PM 15.1 °F 6.4 °F 8.1 °F 74% 30.19 in 10.0 mi SSW 5.8 mph - N/A   Partly Cloudy
11:53 PM 10.0 °F -1.9 °F 6.1 °F 84% 30.19 in 10.0 mi SSW 8.1 mph - N/A   Scattered Clouds